Regional Weather Roundup
Issued by NWS

Home | Current Version | Previous Version | Graphics & Text | Print | Product List | Glossary On
Versions: 1 2 3 4 5 6 7 8 9 10 11 12 13 14 15 16 17 18 19 20 21 22 23 24 25 26 27 28 29 30 31 32 33 34 35 36 37 38 39 40 41 42 43 44 45 46 47 48 49 50
000
ASUS43 KLOT 280209
RWRIL

ILLINOIS REGIONAL WEATHER ROUNDUP
NATIONAL WEATHER SERVICE CHICAGO/ROMEOVILLE IL
900 PM CDT SAT MAY 27 2017

NOTE: "FAIR" INDICATES FEW OR NO CLOUDS BELOW 12,000 FEET WITH NO
SIGNIFICANT WEATHER AND/OR OBSTRUCTIONS TO VISIBILITY.

* THESE STATIONS ARE NOT UNDER NWS QUALITY CONTROL. THEY ALSO MAY NOT
  REPORT WEATHER SUCH AS PRECIPITATION OR FOG.

ILZ001-002-007-009-015-016-024-280300-
NORTHWEST ILLINOIS

CITY           SKY/WX    TMP DP  RH WIND       PRES   REMARKS
MOLINE         CLOUDY    70  60  70 NE3       29.80S
STERLING*      CLOUDY    69  63  81 NE5       29.81F
SAVANNA*       CLOUDY    67  59  74 N6        29.80F
$$

ILZ003-004-008-010-011-017-018-280300-
NORTH CENTRAL ILLINOIS

CITY           SKY/WX    TMP DP  RH WIND       PRES   REMARKS
ROCKFORD       CLOUDY    71  62  73 NE6       29.82F
FREEPORT*      MOCLDY    66  57  72 N6        29.83F
ROCHELLE*      CLOUDY    69  64  83 N3        29.81F
DE KALB*       MOCLDY    69  64  84 NE3       29.82F
PERU*          MOCLDY    69  62  79 NE5       29.81R
$$

ILZ005-006-012>014-019>023-280300-
NORTHEAST ILLINOIS

CITY           SKY/WX    TMP DP  RH WIND       PRES   REMARKS
CHICAGO-OHARE  CLOUDY    67  54  63 E6        29.82F
CHICAGO-MIDWAY MOCLDY    62  53  72 E9        29.82F
AURORA         CLOUDY    69  61  75 NE7       29.81F
LANSING*       CLOUDY    61  57  85 E6        29.84S
JOLIET*        CLOUDY    69  60  75 E8        29.82R
WAUKEGAN       MOCLDY    58  53  84 CALM      29.83F
DUPAGE AIRPORT MOCLDY    67  58  72 NE5       29.81F
KANKAKEE*      CLOUDY    69  63  81 CALM      29.82S
WHEELING       PTCLDY    63  56  78 CALM      29.84F
MORRIS*        CLEAR     70  60  70 CALM      29.79S
ROMEOVILLE*    CLOUDY    66  60  80 E7        29.82S
NORTHERLY ISL    N/A     55  50  83 E2          N/A
$$

LMZ740>746-280300-
SOUTHERN LAKE MICHIGAN

STATION/POSITION SKY/WX   TEMP    WIND        PRES    VSBY  WAVE
                          AIR SEA DIR/SP/G                  HT/PER
                          (F)     (DEG/KT/KT) (MB)    (MI)  (FT/S)
SOUTHERN BUOY              54 51   90/  4/  6 1010.9F         0
WILMETTE HARBOR            53 54                N/A           0
HARRISON CRIB              55     100/  3/  4   N/A
BURNHAM HARBOR             55      60/  3/  3   N/A
CALUMET HARBOR             57      60/  3/  5 1010.1F
BURNS HARBOR               58      70/  9/ 10 1011.2F
MICHIGAN CITY              58      50/  8/  8   N/A
MICHIGAN CITY 6N           57 57   80/  6/  6   N/A           1
ST. JOSEPH                 59 59   60/  4/  4 1010.8          1
$$

ILZ025>027-034>036-040-047-049-050-058-095>099-280300-
WEST-CENTRAL ILLINOIS

CITY           SKY/WX    TMP DP  RH WIND       PRES   REMARKS
QUINCY         CLOUDY    70  64  81 N3        29.77F
GALESBURG*     CLOUDY    65  62  87 NE6       29.79S
MACOMB*        CLOUDY    67  64  90 N5        29.81R
JACKSONVILLE*  CLOUDY    66  62  87 MISG      29.78F
PITTSFIELD*    CLOUDY    70  65  85 CALM      29.79S
$$

ILZ028>032-037-038-041>044-048-051>054-059>061-280300-
CENTRAL ILLINOIS

CITY           SKY/WX    TMP DP  RH WIND       PRES   REMARKS
PONTIAC        CLOUDY    71  68  89 E9        29.79R
BLOOMINGTON    CLOUDY    70  63  78 E9        29.81R
DECATUR        CLOUDY    71  63  75 E7        29.77S
PEORIA         MOCLDY    71  64  78 CALM      29.79R
LACON*         CLOUDY    68  65  88 CALM      29.79R
LINCOLN*       CLOUDY    74  65  74 E6        29.78R
SPRINGFIELD    CLOUDY    72  62  71 S7        29.78R
TAYLORVILLE    CLOUDY    67  60  77 NE6       29.76R
$$

ILZ033-039-045-046-055>057-062-063-280300-
EAST-CENTRAL ILLINOIS

CITY           SKY/WX    TMP DP  RH WIND       PRES   REMARKS
CHAMPAIGN      CLOUDY    68  63  84 E12       29.77F
RANTOUL*       CLOUDY    70  66  88 SE6       29.80F
MATTOON        CLOUDY    70  67  90 E12       29.74F
PARIS*         CLOUDY    68  66  92 NE6       29.81F
$$

ILZ079-100>102-280300-
SOUTHWEST ILLINOIS

CITY           SKY/WX    TMP DP  RH WIND       PRES   REMARKS
ALTON          CLOUDY    64  59  82 SW6       29.76R
BELLEVILLE     CLOUDY    65  61  87 SW6       29.75S
CAHOKIA*       CLOUDY    67  59  75 SW3       29.74R
SPARTA*        CLOUDY    64  60  88 S3        29.78F
$$

ILZ064>066-069>071-074>076-080>082-084>086-088>090-092>094-280300-
SOUTH-CENTRAL ILLINOIS

CITY           SKY/WX    TMP DP  RH WIND       PRES   REMARKS
CARBONDALE     LGT RAIN  64  63  96 VRB3      29.84R
CAIRO*         CLOUDY    66  64  95 E6        29.87S
EFFINGHAM*     CLOUDY    68  65  92 E8        29.77F
MARION         LGT RAIN  64  64 100 CALM      29.82F
MT. VERNON     LGT RAIN  65  61  87 VRB5      29.77F
CENTRALIA*     CLOUDY    67  62  84 SE9       29.75F
SALEM*         LGT RAIN  70  59  69 SE15      29.72F
METROPOLIS*    RAIN      66  62  86 CALM      29.89R
$$

ILZ067-068-072-073-078-083-087-091-280300-
SOUTHEAST ILLINOIS

CITY           SKY/WX    TMP DP  RH WIND       PRES   REMARKS
LAWRENCEVILLE  CLOUDY    73  63  70 SW12      29.83F
FLORA*         CLOUDY    69  63  81 SE5       29.80F
FAIRFIELD*     LGT RAIN  69  61  76 SE8       29.80F
HARRISBURG*    LGT RAIN  64  63  94 E5        29.84F
ROBINSON*      CLOUDY    72  67  85 S6        29.82F
CARMI*         CLOUDY    67  62  82 CALM      29.86F
$$

ABBREVIATIONS USED IN REMARKS
   TC - TEMPERATURE IN CELSIUS
  WCI - WIND CHILL INDEX
   HX - HEAT INDEX
  VSB - VISIBILITY
$$





USA.gov is the U.S. government's official web portal to all federal, state and local government web resources and services.